This demonstration page uses our WeatherBlox Daily Observations layout. Learn more.

Left ArrowRight Arrow

41.86663, -103.66717

Hourly Observations for July 5, 2022

Temp ( °F °C ) Dew Point ( °F °C ) Humidity (%) Winds ( mph kmh ) Pressure ( in mb ) Visibility ( mi km ) Precip ( " mm )
12:53 am 00:53 Mostly Clear 69 20.6 61 16.1 76 76 S 3 6 29.83 1010 10 16 0.00 0.00
1:53 am 01:53 Clear 68 20 59 15 73 73 S 5 7 29.83 1010 10 16 0.00 0.00
2:53 am 02:53 Clear 66 18.9 59 15 78 78 Calm 29.81 1010 10 16 0.00 0.00
3:53 am 03:53 Clear 66 18.9 60 15.6 81 81 NE 5 7 29.80 1009 10 16 0.00 0.00
4:53 am 04:53 Clear 66 18.9 60 15.6 81 81 N 6 9 29.80 1009 10 16 0.00 0.00
5:53 am 05:53 Sunny 65 18.3 59 15 81 81 SSW 3 6 29.81 1009 10 16 0.00 0.00
6:53 am 06:53 Sunny 68 20 61 16.1 78 78 WNW 5 7 29.83 1010 10 16 0.00 0.00
7:53 am 07:53 Sunny 73 22.8 59 15 62 62 W 6 9 29.82 1010 10 16 0.00 0.00
8:53 am 08:53 Sunny 80 26.7 57 13.9 45 45 W 6 9 29.81 1010 10 16 0.00 0.00
9:53 am 09:53 Sunny 83 28.3 60 15.6 46 46 E 6 9 29.81 1010 10 16 0.00 0.00
10:53 am 10:53 Sunny 86 30 62 16.7 45 45 E 9 15 29.80 1009 10 16 0.00 0.00
11:53 am 11:53 Sunny 90 32.2 61 16.1 38 38 E 9 15 29.78 1009 10 16 0.00 0.00
12:53 pm 12:53 Sunny 92 33.3 60 15.6 34 34 ESE 8 13 29.77 1008 10 16 0.00 0.00
1:53 pm 13:53 Sunny 93 33.9 57 13.9 30 30 ESE 8 13 29.75 1008 10 16 0.00 0.00
2:53 pm 14:53 Sunny 92 33.3 58 14.4 32 32 E 7 11 29.75 1008 10 16 0.00 0.00
3:53 pm 15:53 Sunny 96 35.6 45 7.2 17 17 Calm 29.74 1007 10 16 0.00 0.00
4:53 pm 16:53 Sunny 90 32.2 65 18.3 44 44 ENE 24 39 29.73 1007 10 16 0.00 0.00
5:53 pm 17:53 Mostly Sunny 82 27.8 65 18.3 56 56 E 18 30 29.81 1009 10 16 0.00 0.00
6:30 pm 18:30 Cloudy with Thunderstorms 79 26 63 17 58 58 E 14 22 29.71 1006 10 16 0.00 0.00
6:51 pm 18:51 Mostly Cloudy 77 25 63 17 61 61 E 14 22 29.70 1006 10 16 0.00 0.00
6:53 pm 18:53 Partly Cloudy 77 25 62 16.7 60 60 E 14 22 29.83 1010 10 16 0.00 0.00
7:53 pm 19:53 Sunny 74 23.3 63 17.2 69 69 NE 17 28 29.87 1012 10 16 0.00 0.00
8:53 pm 20:53 Clear 71 21.7 61 16.1 71 71 ENE 15 24 29.88 1012 10 16 0.00 0.00
9:53 pm 21:53 Clear 70 21.1 60 15.6 71 71 ESE 12 19 29.88 1012 10 16 0.00 0.00
10:53 pm 22:53 Clear 67 19.4 59 15 76 76 E 7 11 29.89 1012 10 16 0.00 0.00
11:53 pm 23:53 Clear 65 18.3 59 15 81 81 Calm 29.88 1012 10 16 0.00 0.00

Powered by AerisWeather